Location: Lane
(33.5226°N, 79.8788°W)
Time: 06:51:05
(UTC+00:00)

Tiros 1 - Pass Details

Date: 05 October 2022
Orbit: 629 x 662 km, 48.4° (Epoch: 09 December)

Event Time Altitude Azimuth Distance (km) Brightness Sun altitude
Exits shadow 10:40:36 - 301° (WNW) 2,342 9.5 -8.4°
Reaches altitude 10° 10:41:22 10° 299° (WNW) 2,051 9.2 -8.2°
Maximum altitude 10:45:57 51° 224° (SW) 807 7.4 -7.2°
Drops below altitude 10° 10:50:28 10° 148° (SSE) 2,020 10.2 -6.3°
Sets 10:52:49 0° 143° (SE) 2,920 11.1 -5.8°
